N606HD -KLGB

Flight info

Callsign N606HD
Flight time N/A
Altitude VFR
Route +FF
Aircraft AS50/L-DOV/C

Departure

Time N/A
Airport -

Arrival

Time 2026-05-04 04:49
Airport Long Beach International Airport (KLGB)
Time Latitude Longitude Altitude Speed Heading
2026-05-04 04:36 33.94697 -118.44710 123 ft 60 kts 159°
2026-05-04 04:37 33.93406 -118.43998 167 ft 74 kts 162°
2026-05-04 04:37 33.92913 -118.43754 148 ft 78 kts 162°
2026-05-04 04:38 33.92428 -118.43492 192 ft 74 kts 160°
2026-05-04 04:38 33.91977 -118.43220 246 ft 71 kts 156°
2026-05-04 04:38 33.91528 -118.42981 266 ft 70 kts 162°
2026-05-04 04:38 33.91089 -118.42756 313 ft 67 kts 160°
2026-05-04 04:39 33.90682 -118.42502 396 ft 66 kts 153°
2026-05-04 04:39 33.90260 -118.42265 382 ft 67 kts 167°
2026-05-04 04:39 33.89837 -118.42076 389 ft 62 kts 165°
2026-05-04 04:39 33.89446 -118.41872 332 ft 62 kts 163°
2026-05-04 04:40 33.89032 -118.41687 433 ft 63 kts 161°
2026-05-04 04:40 33.88622 -118.41465 510 ft 64 kts 158°
2026-05-04 04:40 33.88226 -118.41224 551 ft 69 kts 161°
2026-05-04 04:40 33.87734 -118.40988 584 ft 80 kts 162°
2026-05-04 04:41 33.87244 -118.40710 784 ft 77 kts 162°
2026-05-04 04:41 33.86678 -118.40413 705 ft 99 kts 161°
2026-05-04 04:41 33.86099 -118.39939 797 ft 106 kts 133°
2026-05-04 04:41 33.85745 -118.39119 827 ft 115 kts 114°
2026-05-04 04:42 33.85459 -118.38183 840 ft 122 kts 110°
2026-05-04 04:42 33.85202 -118.37195 847 ft 125 kts 107°
2026-05-04 04:42 33.84980 -118.36187 815 ft 127 kts 107°
2026-05-04 04:42 33.84774 -118.35170 790 ft 121 kts 107°
2026-05-04 04:43 33.84531 -118.34238 769 ft 116 kts 116°
2026-05-04 04:43 33.84222 -118.33364 789 ft 112 kts 115°
2026-05-04 04:43 33.83952 -118.32503 792 ft 110 kts 115°
2026-05-04 04:43 33.83643 -118.31662 794 ft 107 kts 121°
2026-05-04 04:44 33.83243 -118.30922 795 ft 105 kts 130°
2026-05-04 04:44 33.82825 -118.30212 799 ft 104 kts 126°
2026-05-04 04:44 33.82421 -118.29497 837 ft 104 kts 126°
2026-05-04 04:44 33.82022 -118.28772 853 ft 103 kts 125°
2026-05-04 04:45 33.81622 -118.28037 852 ft 107 kts 128°
2026-05-04 04:45 33.81192 -118.27262 784 ft 114 kts 125°
2026-05-04 04:45 33.80782 -118.26447 668 ft 113 kts 123°
2026-05-04 04:47 33.80622 -118.20733 478 ft 119 kts 85°
2026-05-04 04:47 33.80612 -118.19728 371 ft 120 kts 91°
2026-05-04 04:47 33.80613 -118.18769 443 ft 110 kts 83°
2026-05-04 04:47 33.80650 -118.17907 517 ft 95 kts 85°
2026-05-04 04:48 33.80688 -118.17201 518 ft 78 kts 81°
2026-05-04 04:49 33.81251 -118.16245 82 ft 11 kts 358°
2026-05-04 04:49 33.81274 -118.16220 30 ft 1 kts 358°
2026-05-04 04:49 33.81273 -118.16220 29 ft 0 kts 356°